« Back
NWS Peachtree City, Ga » Text Product » GA Regional Weather Roundup


Printer-friendly Version
Current Version              Previous Versions:   1  2  3  4  5  6  7  8  9  

Regional Weather Roundup

114
ASUS42 KFFC 262103
RWRGA
WEATHER ROUNDUP FOR GEORGIA
NATIONAL WEATHER SERVICE PEACHTREE CITY GA
500 PM EDT SUN APR 26 2015

NOTE: "FAIR" INDICATES FEW OR NO CLOUDS BELOW 12,000 FEET WITH NO
SIGNIFICANT WEATHER AND/OR OBSTRUCTIONS TO VISIBILITY.

* = USE WITH CAUTION. THE STATIONS MARKED WITH AN ASTERISK MAY NOT
REPORT WEATHER SUCH AS PRECIPITATION, FOG, OR THUNDER AND ARE NOT
QUALITY CONTROLLED BY NWS.

THE REMARK "TC" DENOTES TEMPERATURE READING IN DEGREES CELSIUS.

GAZ001>058-262200-
NORTH GEORGIA

CITY           SKY/WX    TMP DP  RH WIND       PRES   REMARKS
ATLANTA        PTSUNNY   80  55  42 W14G24    29.67R
ATHENS         MOSUNNY   81  54  39 NW9G17    29.62S
CHAMBLEE       PTSUNNY   81  56  42 W14G24    29.66R
PEACHTREE CITY MOSUNNY   82  56  40 W13G20    29.67S
ROME           CLOUDY    77  56  48 NW12      29.68R
WEST ATLANTA   MOSUNNY   82  55  39 W16       29.66S
GAINESVILLE    SUNNY     78  52  40 NW17G25   29.67S
CARTERSVILLE   MOSUNNY   79  54  41 VRB5      29.68R


CITY           SKY/WX    TMP DP  RH WIND       PRES   REMARKS
DALTON*        CLOUDY    70  55  60 NW10G20   29.71R
LAWRENCEVILLE* PTSUNNY   81  52  36 W17G26    29.64F
MARIETTA       MOSUNNY   80  54  39 W23       29.67R
KENNESAW*      PTSUNNY   81  54  39 W22G29    29.68R
BLAIRSVILLE*     N/A     67  31  25 N7        29.71R
$$

GAZ059>098-102>109-262200-
CENTRAL GEORGIA

CITY           SKY/WX    TMP DP  RH WIND       PRES   REMARKS
AUGUSTA-BUSH   MOSUNNY   82  58  43 W10       29.59S
AUGUSTA-DANIEL MOSUNNY   84  60  44 SW12G21   29.61S
COLUMBUS       MOSUNNY   84  57  39 W10       29.67F
MACON          MOSUNNY   85  58  39 W15G21    29.64S
ROBINS AFB     SUNNY     87  58  37 W18G26    29.63F


CITY           SKY/WX    TMP DP  RH WIND       PRES   REMARKS
LAGRANGE*      MOSUNNY   86  59  39 W15       29.68F
SYLVANIA*      MOSUNNY   85  62  46 W9G20     29.62S
MILLEDGEVILLE* SUNNY     84  61  45 W5        29.63S
$$

GAZ099>101-110>166-262200-
SOUTH GEORGIA

CITY           SKY/WX    TMP DP  RH WIND       PRES   REMARKS
SAVANNAH       MOSUNNY   87  55  33 W14G21    29.61F
VALDOSTA       PTSUNNY   86  63  45 VRB5      29.69S
ALMA           SUNNY     86  59  39 W13       29.66S
ST SIMONS      MOSUNNY   88  58  36 W13G21    29.64F
FT STEWART     SUNNY     87  52  29 W18G26    29.61S
ALBANY         SUNNY     87  63  44 W12       29.69F
HUNTER AFB     SUNNY     88  55  32 W20G29    29.59F
MOODY AFB      MOSUNNY   88  58  36 SW12      29.67S
BRUNSWICK      SUNNY     90  54  29 W15G24    29.65S


CITY           SKY/WX    TMP DP  RH WIND       PRES   REMARKS
BAINBRIDGE*    SUNNY     91  68  46 W12       29.70S HX  95
MOULTRIE*      SUNNY     86  59  39 W13       29.69F
VIDALIA*       SUNNY     86  59  39 W9G17     29.64S HAZE
WAYCROSS*      MOSUNNY   91  65  42 W15       29.66S HX  93
DOUGLAS*       MOSUNNY   88  61  40 W10       29.68S
$$



USA.gov is the U.S. government's official web portal to all federal, state and local government web resources and services.